Date String (YYYY-MM-DD hh:mm:ss) UTC,Instrument flags,absolute air pressure of the measurement (hPa),sample flow rate (lpm),inlet stack bypass flow (lpm),air temperature of the measurement (°C),ambient temperature measured by the external sensor (°C),aerosol sample conditioner tube jacket temperature (°C),OPC LED temperature (°C),internal box temperature (°C),relative humidity of the measurement (%),span deviation,mass concentration of particles derived from Lorenz-Mie calculation of OPC scattering (μg/m³),mass concentration of particles derived from Lorenz-Mie calculation of OPC scattering (μg/m³),mass concentration of particles derived from Lorenz-Mie calculation of OPC scattering (μg/m³)
DateTimeUTC,F1_M11,P_M11,Q1_M11,Q2_M11,T1_M11,T2_M11,T3_M11,T4_M11,T5_M11,U1_M11,ZSPAN_M11,X0_M11,X2_M11,X1_M11
2024-05-08 01:00:00,SystemResetWarning,0818.0,5.00,000.00,022.9,022.1,000.0,031.4,024.6,018.2,0000.0,0003.94,0000.83,0000.36
2024-05-08 01:01:00,SystemResetWarning,0818.1,4.99,000.00,022.9,022.1,000.0,031.4,024.6,018.1,0000.0,0003.97,0000.81,0000.36
2024-05-08 01:02:00,SystemResetWarning,0818.1,4.99,000.00,022.9,022.2,000.0,031.4,024.7,017.8,0000.0,0004.75,0000.77,0000.37
2024-05-08 01:03:00,SystemResetWarning,0818.1,5.01,000.00,022.9,022.2,000.0,031.4,024.7,017.7,0000.0,0004.70,0000.76,0000.37
2024-05-08 01:04:00,SystemResetWarning,0818.1,5.01,000.00,022.9,022.2,000.0,031.4,024.7,018.0,0000.0,0004.62,0000.73,0000.37
2024-05-08 01:05:00,SystemResetWarning,0818.1,5.00,000.00,022.9,022.3,000.0,031.4,024.8,018.0,0000.0,0005.54,0000.72,0000.37
2024-05-08 01:06:00,SystemResetWarning,0818.2,5.00,000.00,023.0,022.3,000.0,031.4,024.8,018.1,0000.0,0005.06,0000.71,0000.36
2024-05-08 01:07:00,SystemResetWarning,0818.2,4.99,000.00,023.0,022.3,000.0,031.4,024.8,018.0,0000.0,0004.04,0000.73,0000.36
2024-05-08 01:08:00,SystemResetWarning,0818.2,4.99,000.00,023.0,022.3,000.0,031.4,024.8,017.7,0000.0,0004.16,0000.80,0000.37
2024-05-08 01:09:00,SystemResetWarning,0818.2,5.00,000.00,023.0,022.3,000.0,031.4,024.8,017.1,0000.0,0004.17,0000.78,0000.37
2024-05-08 01:10:00,SystemResetWarning,0818.1,5.00,000.00,023.0,022.4,000.0,031.4,024.8,016.8,0000.0,0004.31,0000.78,0000.37
2024-05-08 01:11:00,SystemResetWarning,0818.0,5.01,000.00,023.0,022.4,000.0,031.4,024.9,016.3,0000.0,0004.55,0000.77,0000.36
2024-05-08 01:12:00,SystemResetWarning,0818.0,5.00,000.00,023.0,022.4,000.0,031.4,024.9,015.2,0000.0,0004.87,0000.76,0000.35
2024-05-08 01:13:00,SystemResetWarning,0818.0,5.01,000.00,023.1,022.4,000.0,031.4,024.9,015.1,0000.0,0004.02,0000.79,0000.35
2024-05-08 01:14:00,SystemResetWarning,0818.0,4.99,000.00,023.1,022.4,000.0,031.4,024.9,015.2,0000.0,0004.12,0000.79,0000.34
2024-05-08 01:15:00,SystemResetWarning,0818.0,4.99,000.00,023.1,022.5,000.0,031.4,024.9,015.2,0000.0,0004.13,0000.79,0000.34
2024-05-08 01:16:00,SystemResetWarning,0818.0,4.99,000.00,023.1,022.5,000.0,031.4,024.9,015.1,0000.0,0003.31,0000.77,0000.33
2024-05-08 01:17:00,SystemResetWarning,0817.8,5.01,000.00,023.1,022.5,000.0,031.4,024.9,014.9,0000.0,0003.12,0000.77,0000.33
2024-05-08 01:18:00,SystemResetWarning,0817.8,5.01,000.00,023.1,022.5,000.0,031.4,024.9,014.7,0000.0,0003.14,0000.77,0000.33
2024-05-08 01:19:00,SystemResetWarning,0818.0,5.01,000.00,023.1,022.4,000.0,031.4,024.9,014.8,0000.0,0002.80,0000.70,0000.32
2024-05-08 01:20:00,SystemResetWarning,0818.0,5.00,000.00,023.1,022.4,000.0,031.4,024.9,014.8,0000.0,0002.61,0000.66,0000.32
2024-05-08 01:21:00,SystemResetWarning,0818.0,5.00,000.00,023.1,022.4,000.0,031.4,024.9,014.8,0000.0,0002.39,0000.64,0000.31
2024-05-08 01:22:00,SystemResetWarning,0818.0,4.99,000.00,023.1,022.4,000.0,031.4,024.9,014.9,0000.0,0002.20,0000.62,0000.31
2024-05-08 01:23:00,SystemResetWarning,0818.0,5.00,000.00,023.1,022.4,000.0,031.3,024.9,015.1,0000.0,0001.49,0000.62,0000.31
2024-05-08 01:24:00,SystemResetWarning,0818.0,5.00,000.00,023.1,022.4,000.0,031.4,024.9,015.2,0000.0,0001.48,0000.60,0000.31
2024-05-08 01:25:00,SystemResetWarning,0818.0,5.00,000.00,023.1,022.4,000.0,031.3,024.9,015.1,0000.0,0001.42,0000.62,0000.31
2024-05-08 01:26:00,SystemResetWarning,0818.0,4.99,000.00,023.1,022.4,000.0,031.3,024.8,015.2,0000.0,0001.58,0000.64,0000.32
2024-05-08 01:27:00,SystemResetWarning,0818.0,5.01,000.00,023.1,022.4,000.0,031.3,024.8,015.2,0000.0,0001.73,0000.68,0000.33
2024-05-08 01:28:00,SystemResetWarning,0818.0,5.00,000.00,023.1,022.4,000.0,031.3,024.8,015.1,0000.0,0001.77,0000.70,0000.33
2024-05-08 01:29:00,SystemResetWarning,0818.0,5.01,000.00,023.1,022.4,000.0,031.3,024.8,015.2,0000.0,0001.62,0000.69,0000.32
2024-05-08 01:30:00,SystemResetWarning,0817.9,5.01,000.00,023.1,022.4,000.0,031.3,024.8,015.3,0000.0,0001.87,0000.70,0000.32
2024-05-08 01:31:00,SystemResetWarning,0818.0,5.00,000.00,023.1,022.4,000.0,031.3,024.8,015.3,0000.0,0002.80,0000.72,0000.32
2024-05-08 01:32:00,SystemResetWarning,0818.0,5.00,000.00,023.1,022.4,000.0,031.3,024.8,015.3,0000.0,0002.81,0000.72,0000.32
2024-05-08 01:33:00,SystemResetWarning,0818.0,4.99,000.00,023.1,022.4,000.0,031.3,024.8,014.9,0000.0,0002.86,0000.74,0000.32
2024-05-08 01:34:00,SystemResetWarning,0818.1,4.99,000.00,023.1,022.4,000.0,031.3,024.8,014.9,0000.0,0002.97,0000.75,0000.32
2024-05-08 01:35:00,SystemResetWarning,0818.1,5.00,000.00,023.1,022.4,000.0,031.3,024.8,015.0,0000.0,0002.89,0000.73,0000.32
2024-05-08 01:36:00,SystemResetWarning,0818.1,5.01,000.00,023.1,022.4,000.0,031.3,024.8,015.1,0000.0,0003.55,0000.74,0000.33
2024-05-08 01:37:00,SystemResetWarning,0818.1,5.00,000.00,023.1,022.4,000.0,031.3,024.8,015.3,0000.0,0004.19,0000.77,0000.33
2024-05-08 01:38:00,SystemResetWarning,0818.1,4.99,000.00,023.1,022.4,000.0,031.3,024.8,015.3,0000.0,0004.23,0000.80,0000.33
2024-05-08 01:39:00,SystemResetWarning,0818.0,4.99,000.00,023.1,022.4,000.0,031.3,024.8,015.3,0000.0,0004.11,0000.76,0000.33
2024-05-08 01:40:00,SystemResetWarning,0818.0,4.99,000.00,023.1,022.4,000.0,031.3,024.8,015.2,0000.0,0004.05,0000.73,0000.33
2024-05-08 01:41:00,SystemResetWarning,0818.0,4.99,000.00,023.1,022.4,000.0,031.3,024.8,015.2,0000.0,0004.04,0000.75,0000.33
2024-05-08 01:42:00,SystemResetWarning,0818.1,4.99,000.00,023.1,022.4,000.0,031.3,024.8,015.2,0000.0,0003.81,0000.71,0000.32
2024-05-08 01:43:00,SystemResetWarning,0818.1,5.01,000.00,023.1,022.4,000.0,031.3,024.8,015.3,0000.0,0004.16,0000.71,0000.32
2024-05-08 01:44:00,SystemResetWarning,0818.0,5.01,000.00,023.1,022.4,000.0,031.3,024.8,014.8,0000.0,0004.22,0000.70,0000.32
2024-05-08 01:45:00,SystemResetWarning,0818.0,5.00,000.00,023.1,022.4,000.0,031.3,024.9,014.6,0000.0,0004.08,0000.69,0000.33
2024-05-08 01:46:00,SystemResetWarning,0818.0,5.00,000.00,023.1,022.4,000.0,031.3,024.9,014.6,0000.0,0004.17,0000.70,0000.33
2024-05-08 01:47:00,SystemResetWarning,0818.0,4.99,000.00,023.1,022.4,000.0,031.3,024.9,014.3,0000.0,0004.58,0000.70,0000.33
2024-05-08 01:48:00,SystemResetWarning,0818.1,4.99,000.00,023.1,022.4,000.0,031.3,024.8,014.4,0000.0,0003.88,0000.68,0000.33
2024-05-08 01:49:00,SystemResetWarning,0818.1,5.00,000.00,023.1,022.4,000.0,031.3,024.8,014.7,0000.0,0003.67,0000.62,0000.33
2024-05-08 01:50:00,SystemResetWarning,0818.2,5.01,000.00,023.1,022.4,000.0,031.3,024.8,015.1,0000.0,0003.70,0000.64,0000.33
2024-05-08 01:51:00,SystemResetWarning,0818.2,5.00,000.00,023.1,022.4,000.0,031.3,024.8,015.4,0000.0,0004.20,0000.69,0000.33
2024-05-08 01:52:00,SystemResetWarning,0818.1,5.00,000.00,023.1,022.4,000.0,031.3,024.9,016.0,0000.0,0004.24,0000.69,0000.33
2024-05-08 01:53:00,SystemResetWarning,0818.0,5.00,000.00,023.1,022.3,000.0,031.4,024.9,015.7,0000.0,0003.32,0000.72,0000.34
2024-05-08 01:54:00,SystemResetWarning,0818.1,5.00,000.00,023.1,022.3,000.0,031.4,024.8,016.1,0000.0,0003.26,0000.74,0000.34
2024-05-08 01:55:00,SystemResetWarning,0818.0,4.99,000.00,023.0,022.3,000.0,031.4,024.8,016.1,0000.0,0003.85,0000.74,0000.35
2024-05-08 01:56:00,SystemResetWarning,0818.0,5.00,000.00,023.0,022.2,000.0,031.4,024.8,016.4,0000.0,0004.76,0000.78,0000.34
2024-05-08 01:57:00,SystemResetWarning,0818.0,5.01,000.00,023.0,022.2,000.0,031.4,024.8,016.3,0000.0,0005.55,0000.80,0000.35
2024-05-08 01:58:00,SystemResetWarning,0818.0,5.00,000.00,023.0,022.2,000.0,031.4,024.7,014.8,0000.0,0004.61,0000.81,0000.36
2024-05-08 01:59:00,SystemResetWarning,0818.0,4.99,000.00,023.0,022.2,000.0,031.4,024.7,013.5,0000.0,0004.68,0000.85,0000.37
